Change the Weather History Date:

Friday, August 2, 2013

  Actual Average Record
Temperature  
Mean Temperature 70 °F -  
Max Temperature 79 °F - - ()
Min Temperature 62 °F - - ()
Cooling Degree Days 6    
Growing Degree Days 20 (Base 50)    
Moisture  
Dew Point 59 °F    
Average Humidity 69    
Maximum Humidity 93    
Minimum Humidity 42    
Precipitation  
Precipitation 0.43 in - - ()
Sea Level Pressure  
Sea Level Pressure 29.84 in    
Wind  
Wind Speed 4 mph ()    
Max Wind Speed 18 mph    
Max Gust Speed 18 mph    
T = Trace of Precipitation, MM = Missing Value Source: Averaged Metar Reports

Daily Weather History Graph

Daily Weather History Graph

Search for Another Location

Airport or City:

Trip Planner

Search our weather history database for the weather conditions in past years. The results will help you decide how hot, cold, wet, or windy it might be!

Date:

Astronomy

Aug. 02, 2013 Rise Set
Actual Time 6:08 AM EDT 8:37 PM EDT
Civil Twilight 5:36 AM EDT 9:09 PM EDT
Nautical Twilight 4:55 AM EDT 9:49 PM EDT
Astronomical Twilight 4:10 AM EDT 10:34 PM EDT
Moon 2:26 AM EDT (8/2) 5:34 PM EDT (8/2)
Length of Visible Light 15h 33m
Length of Day
14h 28m
Waning Crescent, 16% of the Moon is Illuminated
Aug 2
Waning Crescent
Aug 6
New
Aug 14
First Quarter
Aug 20
Full
Aug 28
Last Quarter

Hourly Weather History & Observations

Time (EDT) Temp. Dew Point Humidity Pressure Visibility Wind Dir Wind Speed Gust Speed Precip Events Conditions
12:00 AM 67.5 °F 60.1 °F 77% 29.86 in - ESE 2.3 mph - N/A   Unknown
1:00 AM 66.7 °F 59.7 °F 78% 29.86 in - ENE 1.2 mph - N/A   Unknown
2:00 AM 65 °F 61 °F 83% 29.86 in - SW 1.2 mph - -  
2:00 AM 65.5 °F 61.0 °F 85% 29.86 in - SW 1.2 mph - N/A   Unknown
3:00 AM 64.8 °F 59.5 °F 83% 29.85 in - SSW 3.5 mph - N/A   Unknown
4:00 AM 63.5 °F 58.6 °F 84% 29.85 in - SSW 3.5 mph - N/A   Unknown
5:00 AM 64 °F 58 °F 75% 29.84 in - SSW 4.6 mph - -  
5:00 AM 63.5 °F 58.1 °F 83% 29.84 in - SSW 4.6 mph - N/A   Unknown
6:00 AM 63.0 °F 57.7 °F 83% 29.86 in - SSW 3.5 mph - N/A   Unknown
7:00 AM 64.0 °F 57.4 °F 79% 29.87 in - SSW 3.5 mph - N/A   Unknown
8:00 AM 66 °F 58 °F 70% 29.88 in - SSW 3.5 mph - -  
8:00 AM 66.4 °F 58.5 °F 76% 29.88 in - SSW 3.5 mph - N/A   Unknown
9:00 AM 67.3 °F 59.9 °F 77% 29.87 in - ENE 1.2 mph - N/A   Unknown
10:00 AM 69.3 °F 58.1 °F 68% 29.87 in - East 1.2 mph - N/A   Unknown
11:00 AM 72 °F 58 °F 52% 29.86 in - West 8.1 mph - -  
11:00 AM 72.0 °F 57.9 °F 61% 29.86 in - West 8.1 mph - N/A   Unknown
12:00 PM 73.0 °F 58.5 °F 60% 29.86 in - ENE 2.3 mph - N/A   Unknown
1:00 PM 75.2 °F 60.6 °F 60% 29.86 in - WSW 2.3 mph - N/A   Unknown
2:00 PM 76 °F 59 °F 46% 29.85 in - West 6.9 mph - -  
2:00 PM 75.6 °F 59.4 °F 57% 29.85 in - West 6.9 mph - N/A   Unknown
3:00 PM 78.1 °F 57.9 °F 50% 29.84 in - West 6.9 mph - N/A   Unknown
4:00 PM 76.1 °F 61.5 °F 60% 29.82 in - SSW 4.6 mph - N/A   Unknown
5:00 PM 77 °F 58 °F 42% 29.82 in - SW 9.2 mph - -  
5:00 PM 76.6 °F 58.1 °F 53% 29.82 in - SW 9.2 mph 18.4 mph N/A   Unknown
6:00 PM 75.4 °F 58.8 °F 56% 29.81 in - SW 6.9 mph - N/A   Unknown
7:00 PM 73.0 °F 57.7 °F 59% 29.81 in - East 8.1 mph 17.3 mph N/A   Unknown
8:00 PM 72 °F 58 °F 52% 29.81 in - ENE 5.8 mph - -  
8:00 PM 72.1 °F 57.9 °F 61% 29.81 in - ENE 5.8 mph - N/A   Unknown
9:00 PM 71.1 °F 61.0 °F 70% 29.82 in - ENE 3.5 mph - N/A   Unknown
10:00 PM 64.8 °F 61.9 °F 90% 29.83 in - North 18.4 mph - 0.19 in   Unknown
11:00 PM 65 °F 63 °F 89% 29.81 in - NNE 5.8 mph - -  
11:00 PM 64.8 °F 62.6 °F 93% 29.81 in - NNE 5.8 mph - 0.25 in   Unknown